Aérodrome :
LOGIN :

S'inscrire | Disclaimer

   EN    FR    IT 

 










Légende :    VFR   VFR Marginal   IFR   IFR Intensif   IFR Très Intensif
Visi : 
Plafond : 
>= 8 km
>= 3000ft
5 à 8 km
1000 à 3000 ft
1500m à 5 km
500 à 1000 ft
800 à 1500m
200 à 500 ft
< 800m
< 200 ft
Symboles :   Orages  Brouillard  Fortes neiges  Fortes précipitations  Vent > 20 kt
SIGMETs :   Divers  Orages  Givrage  Turbulence  Onde Orograph.  Cendres Volcan.







- Altitude de l'aérodrome : 1585 ft
- Code IATA : SIR


LSGS - Sion

DERNIER METAR :
  • 141250Z VRB03KT 9000 -RA FEW010 OVC070 03/02 Q1006 RERASN

METARs EXPIRÉS :
  • 141220Z VRB03KT 9000 -RA FEW010 OVC070 02/01 Q1006
  • 141150Z VRB02KT 9000 -RA FEW010 OVC070 02/01 Q1006
  • 141120Z VRB03KT 9000 FEW010 OVC065 02/01 Q1007 RESN
  • 141050Z VRB02KT 8000 -RA FEW010 OVC065 02/01 Q1007
  • 141020Z AUTO VRB01KT 6000 -SN BKN/// 02/00 Q1007

TAF TAF LSGS
Valide du 14 à 12h jusqu'au 14 à 21h UTC


141125Z 1412/1421 VRB03KT 8000 -RA FEW010 BKN060
PROB40
TEMPO 1418/1421 VRB10G20KT 1500 SN BKN014TCU
Pas de NOTAMs connus pour ce terrain.



MET'MAP, la Météo Aéronautique d'un coup d'oeil ! - Copyright ORBIFLY Décembre 2007 - Disclaimer

ORBIFLY MET'MAP TEAM :

Programmation & Développement : Alexandra Zaïnal
Conception & Développement : Baudouin d'Aumeries
Co-Programmation & Développement : Marc-Olivier Méhu
Soutien technique & logistique : Manuel Goepfert

Contact : metmap@orbifly.com




SOURCES & CREDITS :

   NOAA